FREGAT DEB, 45849

Orbit data source: Space-Track

FREGAT DEB, 45849 is space debris in LEO originally from a launch on Mon, 18 Jul 2011 UTC launched from the Tyuratam Missile And Space Complex (TTMTR). Debris objects in space refer to the collection of defunct objects orbiting the Earth. Examples of debris include non-operational satellites, rocket bodies, and fragments generated from explosions, collisions, or faulty payload assembly.

Loading next visibility...
Identifier
45849, 2011-037CK
Orbit
LEO
Country
Flag of CISCIS
Related business
Manufacturer
Lavochkin
Mission
Spacecraft
Bus & Motor
Unknown
Mass
Unknown
Launch date (UTC)
2011-07-18 (14 years ago)
Launch vehicle
Unknown
Launch site
Tyuratam Missile And Space Complex (TTMTR)
Object type
Payload
Rocket body
Debris
Shape & HBR
Unknown shape, 0.2 m
Radar Cross Section
Medium (>0.1 m² and <1 m²)

Expand to show TLE details & history
Last TLE update: 6 hours ago

TLE from 6 hours ago
0 FREGAT DEB
1 45849U 11037CK  25299.15301012  .00005314  00000-0  13804-1 0  9992
2 45849  51.3057 359.0724 1710680 113.4308 265.5254 10.81763921210646
Epoch: 2025-10-26T03:40Z
TLE epoch observation values (Epoch: 2025-10-26T03:40:20.074Z)
Latitude
0.00005°
Longitude
-90.7845°
Altitude
2,615.57 km
Speed
6.52 km/s
True Right ascension
23h 56m 17s
True Declination
0° 00' 00"
Sunlit
Object was in full shadow at epoch
Visualization orbit readout
Latitude
Unknown
Longitude
Unknown
Altitude
Unknown
Speed
Unknown
Apparent Right ascension
Unknown
Apparent Declination
Unknown
Sunlit
N/A
Visualization observer readout
Local Sidereal Time
05:11:46
Azimuth
Unknown
Elevation
Unknown
Doppler factor
Unknown
Orbital elements
Apogee altitude
3,735.771 km
Perigee altitude
780.92 km
Semi-major axis
8,636.483 km
Eccentricity
0.17107
Inclination
51.3057°
RAAN
359.0724°
Arg. of periapsis
113.4308°
True anomaly
246.6493°
Mean anomaly
265.5254°
Eccentric anomaly
256.01447°
Mean motion
2.70419 °/min
Orbital period
133.13 mins
BSTAR
0.013804
Loading maneuver chart data...
Computing Atmospheric mass density...
Loading historical data...
Loading historical data...
Loading historical data...
Loading historical data...
Loading historical data...
Loading historical data...
Loading historical data...

Documentation

Showing up to 5 results
|